Location: Unspecified
(0.0000°N, 0.0000°E)
Time: 10:23:25
(UTC+00:00)

Vanguard 1 Rocket - Visible Passes

Search period start: 05 March 2015 00:00
Search period end: 15 March 2015 00:00
Orbit: 656 x 4223 km, 34.3° (Epoch: 04 March)

Date Brightness Start Highest point End Pass type
(mag) Time Alt. Az. Time Alt. Az. Time Alt. Az.
05 Mar 11.2 00:46:24 29° SSE 00:46:24 29° SSE 00:53:51 10° SE visible
05 Mar 11.1 03:03:41 27° SW 03:06:04 27° SSW 03:20:40 10° SSE visible
05 Mar 11.2 05:39:13 10° SSW 05:42:13 11° S 05:44:26 10° S visible
05 Mar 10.4 20:26:39 10° NNW 20:41:25 42° NE 20:41:50 42° NE visible
05 Mar 11.0 22:52:50 10° NW 23:39:06 13° SE 23:40:36 10° SE visible
06 Mar 11.0 01:56:22 35° S 01:56:22 35° S 02:09:18 10° SSE visible
06 Mar 11.3 04:14:53 10° SW 04:26:52 16° SSW 04:35:09 10° SSE visible
06 Mar 10.6 19:16:49 10° NNW 19:27:31 26° NE 19:35:15 22° ENE visible
06 Mar 10.3 21:40:53 10° NW 21:52:37 54° NNW 21:52:37 54° NNW visible
07 Mar 11.2 00:49:02 28° SSE 00:49:02 28° SSE 00:57:05 10° SE visible
07 Mar 11.2 03:06:18 22° SW 03:10:48 23° SSW 03:24:15 10° SSE visible
07 Mar 11.2 05:42:53 10° SSW 05:47:31 11° S 05:51:19 10° SSE visible
07 Mar 10.2 20:29:58 10° NNW 20:44:59 52° NE 20:46:06 51° NE visible
07 Mar 11.0 22:56:41 10° WNW 23:41:40 15° SE 23:43:56 10° SE visible
08 Mar 11.1 01:58:56 31° S 01:58:56 31° S 02:12:39 10° SSE visible
08 Mar 11.3 04:21:33 10° SW 04:32:11 15° S 04:39:50 10° SSE visible
08 Mar 10.3 19:19:58 10° NNW 19:31:24 33° NE 19:39:39 26° ENE visible
08 Mar 10.2 21:44:28 10° NW 22:34:17 - SE 21:57:01 62° NW visible
09 Mar 11.3 00:51:33 28° SSE 00:51:33 28° SSE 01:00:18 10° SE visible
09 Mar 11.3 03:08:49 18° SW 03:15:52 20° SSW 03:28:12 10° SSE visible
09 Mar 11.1 05:45:47 10° SSW 05:52:47 14° S 05:58:19 10° SSE visible
09 Mar 10.5 18:11:15 10° N 18:18:16 18° NE 18:29:36 10° ENE visible
09 Mar 10.0 20:33:22 10° NW 20:48:24 62° NE 20:50:40 61° ENE visible
09 Mar 11.0 23:00:47 10° WNW 23:44:09 16° SE 23:47:07 10° SE visible
10 Mar 11.2 02:01:25 27° SSW 02:01:25 27° SSW 02:16:09 10° SSE visible
10 Mar 11.3 04:27:09 10° SW 04:37:35 15° S 04:45:21 10° SSE visible
10 Mar 10.1 19:23:13 10° NNW 19:35:03 41° NE 19:44:24 29° E visible
10 Mar 10.2 21:48:13 10° WNW 22:36:45 - SE 22:01:46 67° WNW visible
11 Mar 11.3 00:54:01 27° SSE 00:54:01 27° SSE 01:03:33 10° SSE visible
11 Mar 11.4 03:11:17 15° SW 03:21:12 19° SSW 03:32:41 10° SSE visible
11 Mar 11.0 05:48:30 10° SSW 05:57:57 17° S 06:04:49 10° SE visible
11 Mar 10.3 18:14:05 10° N 18:22:17 23° NE 18:36:06 10° E visible
11 Mar 9.9 20:36:54 10° NW 20:51:47 75° NE 20:55:35 66° E visible
11 Mar 11.0 23:05:11 10° WNW 23:46:36 17° SE 23:50:15 10° SE visible
12 Mar 11.3 02:03:52 24° SSW 02:04:01 24° SSW 02:19:58 10° SSE visible
12 Mar 11.3 04:31:36 10° SSW 04:42:59 17° S 04:51:26 10° SE visible
12 Mar 9.9 19:26:33 10° NNW 19:38:31 51° NE 19:49:28 31° E visible
12 Mar 10.2 21:52:12 10° WNW 22:39:12 - SE 22:06:52 65° WSW visible
13 Mar 11.4 00:56:28 26° S 00:56:28 26° S 01:06:56 10° SSE visible
13 Mar 11.4 03:13:44 12° SW 03:26:40 18° S 03:37:51 10° SSE visible
13 Mar 10.8 05:51:10 10° SSW 06:02:57 22° SSE 06:10:46 10° ESE visible
13 Mar 10.1 18:17:07 10° NNW 18:26:03 30° NE 18:41:49 10° E visible
13 Mar 9.9 20:40:35 10° NW 20:55:14 89° NE 21:00:50 62° SE visible
13 Mar 11.1 23:09:56 10° W 23:49:05 17° SSE 23:53:22 10° SE visible
14 Mar 11.4 02:06:21 22° SSW 02:09:18 22° SSW 02:24:17 10° SSE visible
14 Mar 11.2 04:35:16 10° SSW 04:48:17 19° S 04:57:35 10° SE visible
14 Mar 9.7 19:30:01 10° NW 19:41:55 63° NE 19:54:53 29° ESE visible
14 Mar 10.4 21:56:25 10° WNW 22:41:43 - SE 22:12:17 57° SW visible
